Tracking 19638 objects as of 21-Apr-2019
HD Live streaming from Space Station
objects crossing your sky now

THORAD AGENA D DEB

Track THORAD AGENA D DEB now!
10-day predictions


NORAD ID: 17720
Int'l Code: 1970-025PJ
Perigee: 856.6 km
Apogee: 912.7 km
Inclination: 99.6 °
Period: 102.5 minutes
Semi major axis: 7255 km
RCS: 0.0125 m2 (small)
Launch date: April 8, 1970
Source: United States (US)
Launch site: AIR FORCE WESTERN TEST RANGE (AFWTR)

Note: This is SATELLITE DEBRIS
aabbcc
Your satellite tracking list
Your tracking list is empty




NASA's NSSDC Master Catalog

Two Line Element Set (TLE):
1 17720U 70025PJ  19111.05033716  .00000785  00000-0  51747-3 0  9996
2 17720  99.6346 146.1823 0038637 202.5895 212.0646 14.04719641737509
Source of the keplerian elements: AFSPC